カタログに戻る

METEOR 2-17 DEB

LostPO
NORAD 38543·DEBRIS·🇷🇺 Russia

打ち上げ Jan 30, 1988 から Plesetsk Cosmodrome

Loading…

次のパス (今後24時間)

TLE

古いSource: Space-Track

元期: Dec 26, 2023, 21:30 UTC

1 38543U 88005AW  23360.89647569  .00011316  00000-0  43087-2 0  9998
2 38543  82.5297  61.5614 0011935 255.1981 104.7883 14.30771457984888

AllMySatでMETEOR 2-17 DEBをリアルタイム追跡

Download on the App Store